Wind_Speed
13 13 11 10 11 12 11 12 11 10 10 9 9 9 9 10 10 8 7 6 6 7 8 8 9 9 9 9 9 10 10 9 10 9 8 8 7 6 6 5 5 4 4 4
14 14 12 14 14 14 14 13 12 11 12 12 11 12 12 11 11 11 10 8 6 8 8 8 8 8 9 9 9 9 9 9 10 9 8 7 7 6 6 6 5 6 5 5
16 15 16 17 16 16 15 15 14 15 14 12 11 13 14 13 13 13 13 11 9 9 9 9 8 8 8 8 9 9 9 9 10 9 8 8 7 7 7 7 7 7 7 6
17 17 19 19 18 17 16 16 17 17 16 14 13 15 15 15 15 16 15 14 12 11 11 9 9 8 8 8 9 10 9 9 9 10 9 8 8 8 8 8 8 8 9 8
19 19 20 21 20 20 19 19 19 19 19 17 16 16 16 17 17 17 17 16 14 13 11 10 10 10 9 9 9 10 10 10 10 10 10 10 10 10 9 9 9 10 10 10
20 20 21 22 22 22 21 21 20 20 18 20 17 16 18 19 18 17 16 16 15 15 13 11 11 11 11 10 10 10 10 11 11 11 11 12 12 12 11 11 11 11 11 11
21 22 23 23 22 22 22 22 20 19 19 19 16 17 19 18 19 19 17 16 15 14 15 14 12 11 12 12 11 11 11 12 12 12 13 13 13 14 13 13 12 12 12 12
21 22 23 22 23 23 23 23 22 22 20 19 17 18 18 19 21 21 19 16 16 16 16 16 15 13 12 13 13 13 13 13 14 14 14 14 14 15 15 14 14 14 14 13
23 24 23 24 25 25 25 24 24 24 23 21 20 20 20 20 21 21 20 17 19 18 18 17 16 15 14 14 14 15 15 15 15 15 16 15 16 16 16 16 15 15 15 14
25 26 25 24 25 26 25 25 23 24 25 25 22 21 20 22 22 21 21 20 19 20 19 18 17 16 16 16 16 16 17 17 16 16 16 16 16 16 16 16 16 16 16 15
27 27 25 25 26 25 25 26 26 26 25 24 22 22 22 23 23 23 22 22 20 20 20 20 19 19 19 19 19 19 19 18 18 17 17 17 17 18 17 17 17 17 17 17
28 30 29 27 25 25 25 26 26 26 26 26 25 24 22 24 25 24 23 24 23 23 22 22 21 21 21 20 20 20 20 20 20 20 19 19 19 19 19 19 19 19 18 18
29 31 31 29 26 27 27 26 26 25 26 27 27 27 25 24 23 23 24 26 26 25 24 24 23 22 23 23 22 22 22 22 22 22 22 22 21 21 21 21 21 21 21 20
32 32 32 31 26 26 27 28 28 27 28 28 28 28 27 26 24 24 26 28 28 26 25 25 25 24 24 24 24 24 24 24 23 24 24 24 23 23 23 22 22 22 22 21
34 35 34 33 31 30 29 29 29 30 29 30 30 29 27 26 26 27 29 30 29 28 27 26 26 25 25 26 26 26 27 26 26 25 25 25 25 25 24 24 24 23 23 22
35 35 35 35 34 34 34 32 31 30 29 31 31 32 29 28 29 29 29 31 31 29 29 29 28 27 26 27 27 28 28 28 28 27 27 27 27 27 26 26 25 25 25 25
33 35 36 37 35 36 37 34 32 33 33 32 31 32 31 30 31 31 31 31 31 31 30 29 29 29 28 28 29 29 30 29 29 29 29 29 29 28 28 29 28 27 27 27
34 35 36 37 37 38 35 33 33 34 34 34 35 35 33 32 32 33 34 34 33 32 32 31 31 31 30 30 30 31 31 31 30 30 30 30 30 30 30 29 29 29 29 29
35 35 36 36 35 36 34 32 32 33 36 35 35 35 34 34 34 34 35 35 33 34 33 33 33 33 32 32 32 32 31 31 31 31 31 31 31 30 30 30 31 31 31 32
35 35 36 35 35 35 34 32 33 34 37 37 36 35 33 33 34 33 33 33 34 35 33 33 33 33 33 32 32 32 32 32 32 32 32 32 32 32 32 32 33 33 33 32
34 34 36 36 36 35 35 33 32 34 35 35 34 34 33 33 33 34 33 33 34 34 33 32 33 33 33 33 33 32 33 33 33 33 34 34 34 34 34 34 34 33 33 34
32 33 34 35 37 36 35 33 34 34 34 34 34 34 35 34 34 34 34 33 34 33 32 32 32 33 33 33 33 34 35 35 34 35 34 34 35 35 35 35 35 34 35 35
32 32 33 35 36 36 36 35 35 34 34 34 35 36 35 36 36 34 34 35 34 33 33 33 33 34 33 33 34 35 35 35 35 35 35 35 36 36 36 35 35 35 36 36
33 33 35 36 36 36 35 35 35 34 35 35 35 35 36 37 36 36 35 35 34 34 34 33 34 34 33 33 34 34 35 35 35 34 34 35 36 35 35 36 35 36 35 36
32 33 36 37 37 36 35 35 35 35 35 36 36 37 38 37 37 36 35 35 35 34 34 34 34 34 34 34 34 34 34 34 34 34 35 35 35 35 35 35 34 35 35 36
33 34 34 35 37 38 38 37 36 36 36 37 37 37 36 36 35 35 35 35 34 34 34 33 33 33 32 33 33 33 33 33 34 34 34 34 34 35 34 34 34 34 34 34
Wind_Direction
220 222 216 219 230 239 225 234 237 251 263 257 269 278 277 286 296 305 309 318 334 341 350 352 357 5 9 9 9 6 5 5 6 7 8 12 9 3 2 355 345 338 329 320
222 226 224 228 231 236 235 235 238 247 258 248 247 261 272 280 289 293 298 306 316 325 332 337 345 351 360 359 359 359 -0 3 2 1 2 5 4 1 353 352 351 340 325 312
225 229 233 233 233 234 236 238 240 246 253 256 259 264 272 272 279 284 285 290 301 310 319 321 328 337 345 349 350 352 350 351 353 354 354 355 356 353 348 346 345 338 324 314
231 230 232 235 236 236 240 242 245 248 251 248 256 266 268 275 279 279 279 282 289 296 309 312 316 323 331 336 339 343 346 343 343 344 343 343 342 342 339 334 331 333 325 316
235 230 229 231 234 235 236 241 246 249 249 247 243 254 266 270 272 276 276 280 284 288 297 302 307 310 316 320 326 332 336 338 338 337 335 334 334 331 328 326 326 325 320 314
237 235 233 233 234 236 236 238 243 246 248 254 252 256 261 264 271 271 272 278 279 282 289 293 297 301 304 305 311 320 326 327 327 328 329 327 325 323 321 320 318 316 314 311
241 239 236 233 233 236 238 237 242 248 253 259 261 260 259 258 264 266 266 274 277 277 283 286 288 289 293 298 303 310 316 318 318 318 319 320 317 316 315 313 312 309 305 304
248 246 240 236 234 235 238 237 240 245 251 262 262 261 265 263 263 268 269 269 272 275 279 281 282 282 286 291 295 300 304 307 309 311 313 313 312 313 312 308 308 305 302 300
241 248 245 240 237 238 237 238 241 248 250 252 250 254 256 260 257 262 265 264 269 273 275 277 280 282 282 286 290 294 297 299 302 303 305 308 308 306 305 305 304 304 303 302
235 239 240 245 243 242 239 239 238 240 244 248 249 257 262 261 266 266 263 258 263 267 269 270 274 278 281 284 286 289 294 298 300 299 299 302 306 308 305 304 305 303 302 300
240 238 238 238 239 241 242 242 238 238 238 244 250 251 253 258 260 264 262 260 262 265 268 268 271 275 277 279 281 284 287 292 296 298 300 301 302 304 303 300 299 299 298 297
242 240 238 236 241 241 241 244 245 244 244 243 244 248 253 258 260 261 261 262 265 265 268 269 270 272 274 277 279 281 284 288 291 293 294 296 298 299 299 299 298 298 297 296
243 241 240 236 236 240 245 243 243 244 247 249 249 250 254 258 259 258 262 265 267 268 271 271 271 272 272 274 277 280 282 285 287 289 290 292 295 295 296 297 298 297 296 297
244 241 239 235 232 235 241 245 243 241 241 247 250 250 255 256 257 259 262 263 266 268 268 268 269 271 271 272 276 278 281 283 284 285 287 288 290 290 291 294 294 295 294 294
245 242 242 237 233 235 238 241 242 244 242 244 247 250 251 255 256 258 261 262 264 265 265 267 269 270 270 271 274 276 279 281 282 283 284 285 286 286 286 289 290 291 291 291
244 243 242 241 239 238 239 240 242 246 247 248 250 251 252 255 255 256 259 261 264 265 265 266 268 269 270 271 272 274 277 278 280 281 281 281 282 282 282 283 285 287 288 288
247 245 242 241 241 242 240 239 241 244 245 248 249 250 251 255 257 257 259 260 263 265 266 267 268 269 269 269 271 272 275 277 278 279 279 280 281 281 280 281 282 284 286 287
248 246 245 243 242 244 242 239 240 243 246 247 249 250 252 253 257 259 260 263 264 265 267 267 268 269 268 268 270 271 274 275 277 278 278 280 280 280 279 279 280 282 285 286
248 248 246 244 247 250 245 240 239 241 243 245 250 253 254 254 257 260 261 263 265 267 267 267 266 266 267 268 269 271 273 274 275 276 277 278 278 278 278 278 279 281 283 284
247 248 247 246 249 249 246 244 241 242 246 246 250 253 254 256 257 260 264 266 265 266 266 265 266 266 266 268 269 272 273 274 276 276 276 275 276 276 276 277 278 279 280 283
246 247 247 248 250 250 246 246 245 243 246 249 251 254 255 254 256 261 263 264 265 266 267 266 265 267 268 269 271 272 273 274 275 276 275 275 275 275 275 275 275 277 279 281
249 249 247 246 247 246 247 247 246 245 247 250 252 254 253 253 257 260 263 264 265 265 265 265 265 267 270 271 271 272 273 274 274 275 275 275 275 275 275 275 275 276 278 280
244 246 244 245 247 248 248 248 249 249 248 249 251 252 253 255 258 260 262 262 264 265 264 263 265 267 269 270 271 273 274 275 275 274 275 275 276 275 275 275 275 276 276 278
244 242 242 244 247 247 248 248 249 249 248 248 251 253 255 257 259 259 260 260 262 264 264 264 265 266 267 270 272 274 275 276 274 273 275 276 276 275 275 275 276 277 278 280
241 244 244 246 247 248 249 249 250 251 249 250 252 254 256 257 257 258 259 260 261 263 264 265 265 265 267 269 271 274 274 274 273 274 276 276 275 275 275 274 275 277 278 280
243 245 246 247 248 250 248 247 250 250 249 250 251 253 255 256 257 257 259 259 261 262 264 264 264 265 267 269 271 274 275 275 275 276 277 277 276 274 274 274 275 277 278 280
Height
5894 5898 5900 5904 5906 5908 5910 5911 5911 5913 5912 5912 5912 5911 5911 5910 5909 5908 5908 5907 5906 5905 5905 5904 5903 5902 5901 5900 5899 5898 5897 5896 5894 5894 5893 5892 5891 5891 5891 5890 5890 5889 5889 5889
5892 5895 5899 5901 5903 5905 5907 5909 5911 5911 5911 5910 5911 5911 5910 5909 5909 5908 5907 5906 5906 5905 5905 5904 5903 5902 5901 5900 5899 5898 5897 5896 5895 5894 5893 5893 5892 5891 5891 5891 5890 5890 5889 5889
5889 5894 5896 5898 5900 5902 5904 5906 5908 5909 5908 5908 5909 5909 5908 5908 5908 5907 5906 5905 5905 5905 5904 5903 5903 5902 5901 5901 5900 5899 5898 5897 5896 5895 5894 5893 5893 5892 5892 5891 5890 5889 5889 5888
5885 5889 5892 5894 5897 5899 5902 5904 5904 5905 5906 5907 5908 5908 5907 5906 5906 5905 5904 5903 5903 5903 5903 5902 5901 5901 5901 5900 5899 5898 5897 5897 5896 5895 5894 5894 5893 5892 5892 5891 5890 5889 5888 5888
5881 5884 5887 5890 5894 5896 5898 5900 5900 5901 5902 5902 5903 5905 5905 5904 5903 5903 5902 5901 5901 5901 5901 5900 5900 5900 5899 5899 5899 5898 5897 5896 5895 5895 5894 5893 5892 5892 5891 5890 5889 5888 5887 5887
5877 5880 5883 5886 5889 5891 5893 5895 5896 5896 5898 5898 5900 5902 5902 5900 5900 5900 5899 5898 5898 5898 5897 5899 5899 5898 5898 5898 5897 5897 5896 5895 5895 5894 5893 5892 5891 5890 5890 5889 5888 5886 5886 5885
5873 5875 5878 5881 5884 5887 5889 5891 5892 5892 5894 5895 5897 5898 5898 5897 5897 5896 5895 5895 5895 5895 5895 5896 5896 5896 5896 5896 5895 5895 5895 5894 5893 5892 5891 5890 5889 5888 5888 5887 5886 5885 5884 5883
5868 5871 5873 5875 5878 5881 5883 5886 5888 5890 5892 5893 5894 5894 5895 5894 5893 5893 5893 5892 5892 5893 5893 5893 5894 5894 5893 5893 5893 5893 5892 5892 5891 5890 5889 5888 5887 5886 5885 5884 5883 5882 5881 5881
5864 5867 5869 5870 5873 5875 5878 5880 5883 5885 5886 5888 5889 5890 5890 5889 5889 5889 5889 5889 5889 5890 5890 5890 5890 5890 5890 5890 5890 5890 5889 5889 5888 5887 5886 5885 5884 5883 5882 5881 5881 5880 5879 5878
5857 5860 5863 5865 5868 5869 5872 5875 5878 5880 5881 5882 5885 5886 5886 5885 5884 5884 5884 5884 5885 5886 5886 5886 5886 5886 5886 5887 5886 5886 5886 5885 5884 5883 5882 5882 5881 5879 5878 5878 5877 5877 5876 5875
5851 5853 5856 5859 5861 5864 5866 5869 5870 5873 5875 5878 5880 5883 5881 5880 5878 5879 5879 5879 5880 5881 5881 5881 5882 5882 5882 5882 5882 5882 5882 5881 5881 5880 5879 5878 5877 5876 5875 5874 5873 5873 5872 5871
5844 5846 5848 5852 5855 5857 5861 5863 5865 5867 5869 5870 5873 5876 5875 5874 5874 5874 5874 5874 5875 5876 5876 5875 5876 5877 5877 5878 5878 5878 5877 5877 5877 5876 5875 5874 5873 5872 5871 5870 5869 5868 5868 5867
5836 5839 5841 5845 5850 5852 5853 5856 5859 5861 5863 5865 5866 5870 5868 5868 5867 5866 5867 5868 5869 5870 5871 5870 5871 5872 5872 5872 5873 5873 5872 5872 5872 5871 5870 5870 5869 5868 5867 5866 5865 5864 5864 5863
5828 5830 5834 5838 5842 5845 5846 5849 5851 5854 5856 5858 5860 5861 5862 5862 5861 5861 5861 5861 5862 5864 5865 5865 5866 5867 5867 5867 5867 5867 5867 5866 5866 5866 5865 5864 5864 5863 5862 5861 5860 5860 5859 5858
5818 5821 5824 5828 5833 5836 5838 5840 5843 5846 5848 5851 5853 5853 5855 5855 5855 5855 5854 5854 5855 5857 5858 5859 5860 5860 5860 5861 5861 5861 5860 5860 5860 5860 5859 5859 5858 5857 5856 5855 5855 5854 5853 5852
5809 5813 5816 5819 5824 5827 5829 5833 5835 5837 5841 5843 5844 5845 5848 5848 5848 5847 5847 5848 5849 5850 5851 5852 5853 5854 5854 5854 5854 5853 5853 5853 5853 5853 5853 5852 5851 5851 5850 5849 5849 5848 5847 5846
5801 5803 5807 5810 5815 5816 5819 5825 5828 5831 5832 5834 5835 5837 5838 5839 5840 5840 5840 5840 5841 5842 5843 5845 5846 5846 5847 5847 5847 5847 5846 5846 5846 5846 5846 5845 5844 5843 5843 5842 5842 5841 5840 5839
5792 5794 5797 5801 5805 5805 5813 5817 5819 5821 5823 5825 5825 5827 5828 5831 5831 5831 5832 5833 5833 5834 5835 5837 5838 5838 5839 5839 5839 5839 5839 5839 5838 5838 5838 5837 5836 5836 5835 5835 5834 5834 5833 5831
5784 5786 5788 5792 5794 5797 5803 5806 5810 5812 5813 5816 5816 5817 5819 5822 5823 5823 5824 5825 5825 5826 5827 5828 5829 5830 5830 5830 5831 5831 5831 5831 5830 5830 5829 5829 5828 5828 5827 5827 5826 5825 5824 5823
5775 5777 5780 5782 5785 5788 5795 5797 5798 5801 5803 5805 5807 5808 5810 5812 5813 5814 5815 5815 5816 5816 5817 5818 5820 5821 5821 5822 5822 5822 5822 5822 5822 5821 5821 5820 5820 5819 5819 5818 5818 5817 5816 5814
5765 5768 5770 5773 5775 5779 5784 5785 5787 5791 5794 5795 5797 5799 5801 5803 5804 5805 5805 5807 5807 5807 5808 5809 5811 5812 5812 5812 5813 5813 5813 5813 5813 5812 5811 5811 5810 5810 5809 5809 5808 5807 5806 5805
5757 5759 5761 5764 5766 5771 5772 5775 5778 5779 5782 5784 5786 5789 5791 5793 5794 5795 5797 5798 5799 5800 5800 5801 5802 5803 5803 5803 5804 5804 5804 5804 5803 5802 5802 5801 5801 5800 5799 5799 5798 5797 5796 5795
5748 5751 5753 5755 5758 5759 5761 5764 5767 5768 5771 5774 5776 5778 5780 5783 5784 5787 5789 5789 5790 5791 5791 5792 5793 5794 5794 5794 5795 5795 5794 5794 5793 5793 5792 5791 5790 5789 5789 5788 5788 5787 5786 5785
5739 5741 5742 5745 5747 5748 5751 5753 5755 5757 5761 5764 5766 5768 5770 5773 5775 5777 5779 5780 5781 5781 5782 5784 5784 5785 5785 5785 5785 5785 5785 5784 5784 5783 5782 5781 5780 5779 5778 5778 5778 5777 5775 5774
5729 5731 5732 5734 5737 5738 5740 5743 5745 5748 5751 5753 5755 5758 5761 5763 5765 5767 5769 5770 5771 5772 5774 5775 5775 5776 5776 5777 5776 5776 5775 5774 5774 5773 5772 5771 5771 5770 5769 5768 5767 5767 5766 5765
5721 5722 5723 5724 5727 5728 5731 5733 5735 5737 5740 5742 5745 5748 5751 5753 5755 5758 5759 5760 5761 5763 5765 5765 5766 5767 5767 5767 5767 5767 5766 5765 5764 5764 5763 5762 5761 5760 5758 5758 5758 5757 5757 5756